Regional Weather Roundup
Issued by NWS Northern Indiana

Home | Current Version | Previous Version | Graphics & Text | Print | Product List | Glossary On
Versions: 1 2 3 4 5 6 7 8 9 10 11 12 13 14 15 16 17 18 19 20 21 22 23 24 25 26 27 28 29 30 31 32 33 34 35 36 37 38 39 40 41 42 43 44 45 46 47 48 49 50
000
ASUS43 KIWX 260900
RWRIWX

KIWX WEATHER ROUNDUP
NATIONAL WEATHER SERVICE NORTHERN INDIANA
500 AM EDT MON JUN 26 2017

NOTE: "FAIR" INDICATES FEW OR NO CLOUDS BELOW 12,000 FEET WITH NO
SIGNIFICANT WEATHER AND/OR OBSTRUCTIONS TO VISIBILITY.

* THESE STATIONS ARE NOT UNDER NWS QUALITY CONTROL. THEY ALSO MAY NOT
  REPORT WEATHER SUCH AS PRECIPITATION OR FOG.

INZ001>027-261000-
NORTHERN INDIANA

CITY           SKY/WX    TMP DP  RH WIND       PRES   REMARKS
GARY*          CLEAR     56  49  79 SW3       30.11S
KNOX*          PTCLDY    52  43  71 W5        30.10S
SOUTH BEND     PTCLDY    54  51  90 W7        30.09S
GOSHEN         CLEAR     53  48  83 W7        30.08R
MONTICELLO*    CLEAR     55  49  79 SW5       30.12S
FORT WAYNE     PTCLDY    57  49  74 W7        30.09S
PERU/GRISSOM   CLEAR     53  51  93 W7        30.11R

$$
INZ028>050-261000-
CENTRAL INDIANA

CITY           SKY/WX    TMP DP  RH WIND       PRES   REMARKS
LAFAYETTE      PTCLDY    51  51 100 CALM      30.13S
KOKOMO*        CLEAR     55  50  83 W8        30.13S
MUNCIE*        CLEAR     57  49  74 SW5       30.12S
INDIANAPOLIS   CLEAR     54  49  83 SW7       30.15R

$$
MIZ043>046-050>051-056>058-064>065-071>073-077>080-261000-
SOUTHWEST LOWER MICHIGAN

CITY           SKY/WX    TMP DP  RH WIND       PRES   REMARKS
BATTLE CREEK   PTCLDY    53  51  93 W8        30.05S
BENTON HARBOR  CLEAR     61  49  64 NW13G20   30.07R
COLDWATER*     CLEAR     55  51  84 W7        30.05S
HILLSDALE*     CLEAR     52  48  87 W3        30.04R
HOLLAND        PTCLDY    58  51  78 W5        30.05R
GRAND RAPIDS   PTCLDY    55  53  93 W7        30.03R
KALAMAZOO      MOCLDY    54  49  83 SW6       30.05S
STURGIS*       PTCLDY    54  51  89 CALM      30.06R
THREE RIVERS*  FAIR      56  51  83 W7        30.07R

$$
OHZ001>008-015>018-024>025-261000-
NORTHWEST OHIO

CITY           SKY/WX    TMP DP  RH WIND       PRES   REMARKS
DEFIANCE       MOCLDY    56  50  80 W5        30.06S
FINDLAY        CLEAR     56  48  74 W8        30.05S
TOLEDO EXPRESS MOCLDY    58  51  78 W7        30.04R
TOLEDO METCALF CLOUDY    60  52  74 W7        30.04S
LIMA           CLEAR     55  50  83 SW8       30.08S

$$
AND FOR LAKE MICHIGAN COASTAL AND OPEN LAKE BUOY OBSERVATIONS

STATION/POSITION TEMP    WIND        PRES    VSBY  WAVE
                 AIR SEA DIR/SP/G                  HT/PER
                 (F)     (DEG/KT/KT) (MB)    (MI)  (FT/S)
CALUMET HARBOR    58     230/  4/  5 1018.8R
MICHIGAN CITY     61     260/ 14/ 15   N/A
BURNS HARBOR      61     240/  8/ 12 1019.6R
SOUTH LAKE BUOY   60 61  320/ 16/ 17 1017.4          3/ 5
4 MI NW BRIDGMAN  63 68  310/ 16/ 21 1018.3R         6/ 5
MICHIGAN CITY     62 66  280/ 10/ 14   N/A           4/ 5

$$
&&




USA.gov is the U.S. government's official web portal to all federal, state and local government web resources and services.